AEE437 LOWW-LGIR

Flight info

Callsign AEE437
Flight time N/A
Altitude 37000
Route ARSIN DCT NALOX DCT BABIT DCT OKTAS DCT REDVA/N0444F390 UL616 KOGAT DCT TALAS UM749 ELPIS DCT KEA UL607 GIVIS T514 XAVIS
Aircraft A320/M-SDE3FGHIRWY/LB1

Departure

Time 2026-05-05 06:57
Airport Vienna International Airport (LOWW)

Arrival

Time N/A
Airport Heraklion International Nikos Kazantzakis Airport (LGIR)
Time Latitude Longitude Altitude Speed Heading
2026-05-05 06:22 48.11904 16.55701 622 ft 0 kts 25°
2026-05-05 06:22 48.11907 16.55703 620 ft 0 kts 26°
2026-05-05 06:48 48.11906 16.55702 610 ft 2 kts 26°
2026-05-05 06:49 48.11888 16.55690 612 ft 4 kts 23°
2026-05-05 06:49 48.11863 16.55675 617 ft 4 kts 16°
2026-05-05 06:49 48.11837 16.55668 619 ft 4 kts 350°
2026-05-05 06:49 48.11820 16.55680 624 ft 1 kts 296°
2026-05-05 06:50 48.11820 16.55681 624 ft 0 kts 296°
2026-05-05 06:51 48.11820 16.55680 624 ft 0 kts 296°
2026-05-05 06:52 48.11824 16.55665 623 ft 3 kts 285°
2026-05-05 06:52 48.11816 16.55627 620 ft 5 kts 243°
2026-05-05 06:52 48.11784 16.55595 615 ft 7 kts 184°
2026-05-05 06:52 48.11745 16.55642 618 ft 9 kts 116°
2026-05-05 06:53 48.11712 16.55736 619 ft 12 kts 118°
2026-05-05 06:53 48.11655 16.55901 615 ft 23 kts 116°
2026-05-05 06:53 48.11590 16.56102 615 ft 22 kts 116°
2026-05-05 06:53 48.11522 16.56311 626 ft 24 kts 116°
2026-05-05 06:54 48.11446 16.56542 626 ft 25 kts 116°
2026-05-05 06:54 48.11366 16.56785 623 ft 27 kts 115°
2026-05-05 06:54 48.11287 16.57031 611 ft 26 kts 115°
2026-05-05 06:54 48.11209 16.57272 616 ft 25 kts 116°
2026-05-05 06:55 48.11140 16.57479 619 ft 16 kts 122°
2026-05-05 06:55 48.11067 16.57522 618 ft 4 kts 192°
2026-05-05 06:55 48.11035 16.57497 610 ft 7 kts 208°
2026-05-05 06:55 48.10986 16.57456 612 ft 9 kts 213°
2026-05-05 06:56 48.10977 16.57360 610 ft 11 kts 288°
2026-05-05 06:56 48.11023 16.57213 612 ft 35 kts 295°
2026-05-05 06:56 48.11239 16.56544 610 ft 107 kts 296°
2026-05-05 06:56 48.11646 16.55291 624 ft 158 kts 296°
2026-05-05 06:57 48.12150 16.53674 932 ft 176 kts 284°
2026-05-05 06:57 48.12015 16.51922 1664 ft 166 kts 237°
2026-05-05 06:57 48.11288 16.50699 2407 ft 159 kts 212°
2026-05-05 06:57 48.10318 16.49789 2846 ft 174 kts 212°
2026-05-05 06:58 48.09234 16.48742 3185 ft 198 kts 212°
2026-05-05 06:58 48.07975 16.47632 3621 ft 222 kts 200°
2026-05-05 06:58 48.06362 16.47411 4147 ft 247 kts 175°
2026-05-05 06:58 48.04622 16.47742 5014 ft 255 kts 174°
2026-05-05 06:59 48.02846 16.48082 5965 ft 260 kts 175°
2026-05-05 06:59 48.01033 16.48430 6883 ft 264 kts 175°
2026-05-05 06:59 47.99197 16.48781 7801 ft 268 kts 175°
2026-05-05 06:59 47.97331 16.48823 8700 ft 270 kts 189°
2026-05-05 07:00 47.95522 16.48061 9554 ft 273 kts 205°
2026-05-05 07:00 47.93825 16.46744 10290 ft 281 kts 208°
2026-05-05 07:00 47.92019 16.45331 10568 ft 304 kts 207°
2026-05-05 07:00 47.89946 16.44329 10848 ft 325 kts 186°
2026-05-05 07:01 47.87661 16.44648 11443 ft 336 kts 168°
2026-05-05 07:01 47.85384 16.45484 12174 ft 339 kts 167°
2026-05-05 07:01 47.83082 16.46354 12959 ft 342 kts 167°
2026-05-05 07:01 47.80775 16.47236 13724 ft 344 kts 167°
2026-05-05 07:02 47.78449 16.48125 14416 ft 346 kts 167°
2026-05-05 07:02 47.76106 16.49014 15054 ft 349 kts 167°
2026-05-05 07:02 47.73745 16.49903 15676 ft 352 kts 167°
2026-05-05 07:02 47.71390 16.50788 16287 ft 355 kts 167°
2026-05-05 07:03 47.68985 16.51691 16919 ft 358 kts 167°
2026-05-05 07:03 47.66553 16.52606 17534 ft 362 kts 167°
2026-05-05 07:03 47.64101 16.53525 18149 ft 365 kts 167°
2026-05-05 07:03 47.61631 16.54447 18710 ft 368 kts 168°
2026-05-05 07:04 47.59133 16.55377 19229 ft 373 kts 168°
2026-05-05 07:04 47.56606 16.56319 19745 ft 377 kts 168°
2026-05-05 07:04 47.54042 16.57277 20239 ft 382 kts 168°
2026-05-05 07:04 47.51450 16.58243 20747 ft 386 kts 168°
2026-05-05 07:05 47.48829 16.59219 21235 ft 391 kts 168°
2026-05-05 07:05 47.46180 16.60203 21695 ft 395 kts 168°
2026-05-05 07:05 47.43505 16.61199 22168 ft 398 kts 168°
2026-05-05 07:05 47.40803 16.62201 22668 ft 401 kts 168°
2026-05-05 07:06 47.38079 16.63208 23119 ft 406 kts 168°
2026-05-05 07:06 47.35367 16.64210 23550 ft 410 kts 168°
2026-05-05 07:06 47.32593 16.65242 23968 ft 412 kts 168°
2026-05-05 07:06 47.29808 16.66279 24408 ft 414 kts 168°
2026-05-05 07:07 47.26997 16.67322 24826 ft 416 kts 168°
2026-05-05 07:07 47.24197 16.68354 25218 ft 419 kts 168°
2026-05-05 07:07 47.21356 16.69397 25596 ft 422 kts 168°
2026-05-05 07:07 47.18540 16.70433 25951 ft 425 kts 168°
2026-05-05 07:08 47.15660 16.71493 26325 ft 428 kts 167°
2026-05-05 07:08 47.12768 16.72558 26759 ft 429 kts 167°
2026-05-05 07:08 47.09861 16.73628 27184 ft 431 kts 168°
2026-05-05 07:08 47.06948 16.74704 27611 ft 433 kts 168°
2026-05-05 07:09 47.04015 16.75784 27995 ft 436 kts 168°
2026-05-05 07:09 47.01067 16.76864 28386 ft 438 kts 168°
2026-05-05 07:09 46.98103 16.77947 28763 ft 440 kts 168°
2026-05-05 07:09 46.95118 16.79036 29094 ft 444 kts 168°
2026-05-05 07:10 46.92137 16.80283 29442 ft 448 kts 161°
2026-05-05 07:10 46.89294 16.82236 29808 ft 454 kts 151°
2026-05-05 07:10 46.86713 16.84910 30255 ft 457 kts 141°
2026-05-05 07:10 46.84481 16.88215 30735 ft 459 kts 131°
2026-05-05 07:11 46.82658 16.92037 31188 ft 460 kts 123°
2026-05-05 07:11 46.80967 16.96009 31635 ft 459 kts 124°
2026-05-05 07:11 46.79279 16.99949 32107 ft 458 kts 124°
2026-05-05 07:11 46.77584 17.03871 32567 ft 458 kts 124°
2026-05-05 07:12 46.75885 17.07791 33024 ft 458 kts 124°
2026-05-05 07:12 46.74183 17.11717 33482 ft 457 kts 124°
2026-05-05 07:12 46.72488 17.15632 33938 ft 457 kts 124°
2026-05-05 07:12 46.70791 17.19547 34330 ft 457 kts 124°
2026-05-05 07:13 46.69090 17.23459 34690 ft 457 kts 124°
2026-05-05 07:13 46.67389 17.27366 35043 ft 457 kts 124°
2026-05-05 07:13 46.65685 17.31269 35415 ft 457 kts 124°
2026-05-05 07:13 46.64005 17.35118 35778 ft 456 kts 124°
2026-05-05 07:14 46.62306 17.39008 36137 ft 456 kts 124°
2026-05-05 07:14 46.60606 17.42898 36491 ft 455 kts 124°
2026-05-05 07:14 46.58907 17.46782 36845 ft 455 kts 124°
2026-05-05 07:14 46.57206 17.50668 36981 ft 456 kts 124°
2026-05-05 07:15 46.55499 17.54565 37001 ft 457 kts 124°
2026-05-05 07:15 46.52079 17.62347 36999 ft 457 kts 124°
2026-05-05 07:16 46.48642 17.70125 37010 ft 458 kts 124°
2026-05-05 07:16 46.45194 17.77903 37010 ft 458 kts 124°
2026-05-05 07:17 46.41743 17.85671 37016 ft 458 kts 124°
2026-05-05 07:17 46.38289 17.93436 37014 ft 459 kts 124°
2026-05-05 07:18 46.34832 18.01205 37003 ft 459 kts 124°
2026-05-05 07:18 46.31357 18.08961 37017 ft 460 kts 124°
2026-05-05 07:19 46.27870 18.16708 37032 ft 460 kts 124°
2026-05-05 07:19 46.24380 18.24458 37048 ft 460 kts 124°
2026-05-05 07:20 46.21478 18.30900 37051 ft 460 kts 124°
2026-05-05 07:20 46.17414 18.39894 37041 ft 461 kts 124°
2026-05-05 07:21 46.13906 18.47631 37057 ft 461 kts 124°
2026-05-05 07:21 46.10392 18.55364 37049 ft 461 kts 124°
2026-05-05 07:22 46.07434 18.61827 37048 ft 461 kts 124°
2026-05-05 07:22 46.03899 18.69537 37047 ft 462 kts 124°
2026-05-05 07:23 46.00360 18.77253 37047 ft 462 kts 124°
2026-05-05 07:23 45.96815 18.84970 37043 ft 462 kts 124°
2026-05-05 07:24 45.92813 18.92019 37047 ft 460 kts 140°
2026-05-05 07:24 45.87475 18.97086 37048 ft 457 kts 155°
2026-05-05 07:25 45.81845 19.01200 37052 ft 458 kts 154°
2026-05-05 07:25 45.76172 19.05373 37040 ft 458 kts 154°